Regional Weather Roundup
Issued by NWS

Home | Current Version | Previous Version | Text Only | Print | Product List | Glossary Off
Versions: 1 2 3 4 5 6 7 8 9 10 11 12 13 14 15 16 17 18 19 20 21 22 23 24 25 26 27 28 29 30 31 32 33 34 35 36 37 38 39 40 41 42 43 44 45 46 47 48 49 50

000
ASUS45 KBOU 230407
RWRCO

WEATHER ROUNDUP FOR COLORADO
NATIONAL WEATHER SERVICE DENVER/BOULDER CO
1000 PM MDT FRI JUL 22 2016

NOTE: "FAIR" INDICATES FEW OR NO CLOUDS BELOW 12000 FEET WITH NO
SIGNIFICANT WEATHER AND/OR OBSTRUCTIONS TO VISIBILITY.

COZ001>005-013-030-031-230500-
...NORTHWEST COLORADO...

CITY           SKY/WX    TMP DP  RH WIND       PRES   REMARKS
CRAIG          FAIR      68  45  43 S14       30.27R
HAYDEN         FAIR      66  43  42 SE9       30.31R
MEEKER         FAIR      66  51  58 N8        30.30R
MOUNT WERNER   NOT AVBL
STEAMBOAT SPGS FAIR      65  47  53 NE5       30.33R
WALDEN         FAIR      63  41  45 S6        30.42R
$$

COZ006>008-011-230500-
...WEST CENTRAL VALLEYS...

CITY           SKY/WX    TMP DP  RH WIND       PRES   REMARKS
GRAND JUNCTION CLOUDY    72  59  63 SE12      30.20R
MONTROSE       FAIR      76  47  35 W8        30.34R
EAGLE          FAIR      66  54  63 E3        30.36R
RIFLE          FAIR      70  54  56 NE8       30.25R
DELTA          RAIN      75  58  54 W10       30.29R
NUCLA          FAIR      70  50  49 S8        30.35R
$$

COZ017>023-064>068-230500-
...SOUTHWEST COLORADO...

CITY           SKY/WX    TMP DP  RH WIND       PRES   REMARKS
DURANGO        FAIR      73  49  42 N6        30.29R
CORTEZ         MOCLDY    75  46  35 NE16G29   30.29S
PAGOSA SPRINGS FAIR      71  43  37 NE3       30.39R
TELLURIDE      FAIR      59  48  65 SW3       30.61R
WOLF CREEK PAS MOCLDY    52  41  66 SW6       30.77R
$$

COZ009-010-012-014-032>034-037-058>063-230500-
...CENTRAL COLORADO...

CITY           SKY/WX    TMP DP  RH WIND       PRES   REMARKS
ASPEN          FAIR      60  49  66 S9        30.43R
BUENA VISTA    FAIR      62  48  60 NW10      30.42S
COPPER MTN     FAIR      54  37  54 W9        30.76R
BERTHOUD PASS  MOCLDY    45  32  61 N22       30.76R
COTTONWOOD PAS FAIR      63  37  39 W9G16     30.57R
GUNNISON       FAIR      61  48  63 N6        30.48R
KREMMLING      FAIR      61  46  59 S3        30.40R
LEADVILLE      FAIR      50  43  77 E3        30.58R
MONARCH PASS   FAIR      50  43  76 W13G21    30.84R
SALIDA         FAIR      72  46  39 NW9       30.46R
SUNLIGHT       CLOUDY    55  41  58 W3        30.69R
WILKERSON PASS CLOUDY    55  36  47 NW8       30.69S
$$

COZ069>075-230500-
...SAN LUIS VALLEY/SANGRE DE CRISTO MOUNTAINS...

CITY           SKY/WX    TMP DP  RH WIND       PRES   REMARKS
ALAMOSA        FAIR      68  47  46 N8        30.37R
LA VETA PASS   FAIR      63  39  42 S6G21     30.58R
SAGUACHE       FAIR      66  46  48 NW10      30.42R
$$

COZ035-036-038>040-230500-
...NORTHERN COLORADO FRONT RANGE...

CITY           SKY/WX    TMP DP  RH WIND       PRES   REMARKS
DENVER INTL AP MOCLDY    83  47  28 W10       30.10S
DMNS CITY PARK   N/A     78  50  37 W3        30.11R
AURORA         MOCLDY    76  51  40 SW10      30.15R
FRONT RANGE AP NOT AVBL
ERIE MUNI ARPT FAIR      77  52  42 W7        30.10R
BOULDER MUN AP FAIR      75  59  57 SW6       30.12R
CENTENNIAL     FAIR      76  46  34 SW7       30.17R
BROOMFIELD     MOCLDY    79  50  36 W9        30.15R
LONGMONT       FAIR      75  56  50 NW7       30.11S
$$

COZ041-046-047-076>085-087-088-230500-
...PIKES PEAK/PALMER DIVIDE AND SOUTHERN FOOTHILLS...

CITY           SKY/WX    TMP DP  RH WIND       PRES   REMARKS
COLO. SPRINGS  MOCLDY    73  54  51 N7        30.23R
A. F. ACADEMY  FAIR      68  51  54 N5        30.25R
SCHRIEVER AFB  NOT AVBL
ELLICOTT       FAIR     N/A N/A N/A N8        30.19R
FALCON         NOT AVBL
FORT CARSON    FAIR      74  52  46 NW5       30.18R
LIMON          FAIR      75  46  35 NW7       30.11S
MONUMENT HILL  FAIR      66  52  59 SW8       30.30R
TRINIDAD       NOT AVBL
$$

COZ042>045-048>051-090-091-230500-
...NORTHEAST COLORADO...

CITY           SKY/WX    TMP DP  RH WIND       PRES   REMARKS
GREELEY ARPT   CLOUDY    81  52  36 SE3       30.08F THUNDER
AKRON          FAIR      72  58  61 SE8       30.06R
BURLINGTON     FAIR      82  54  37 S17       30.03S THUNDER
WRAY           NOT AVBL
STERLING       FAIR      72  63  73 E16G28    30.03F
HOLYOKE        CLOUDY    70  64  83 W18       30.11R THUNDER
FORT MORGAN    FAIR      75  55  49 E9        30.03S
$$

COZ086-089-092>099-230500-
...SOUTHEAST COLORADO...

CITY           SKY/WX    TMP DP  RH WIND       PRES   REMARKS
PUEBLO         FAIR      80  57  45 CALM      30.07R
LA JUNTA       FAIR      83  51  33 S6        30.03R
LAMAR          FAIR      84  54  35 S6        29.96R
SPRINGFIELD      N/A     84  54  35 S18G26    30.05R
$$



USA.gov is the U.S. government's official web portal to all federal, state and local government web resources and services.